Location: Unspecified
(0.0000°N, 0.0000°E)
Time: 04:02:03
(UTC+00:00)

BlueWalker 3 - Visible Passes

Search period start: 19 February 2026 00:00
Search period end: 01 March 2026 00:00
Orbit: 451 x 460 km, 53.2° (Epoch: 18 February)

Date Brightness Start Highest point End Pass type
(mag) Time Alt. Az. Time Alt. Az. Time Alt. Az.
19 Feb 2.9 04:49:01 10° SSW 04:52:26 43° ESE 04:55:51 10° NE visible
20 Feb 4.0 04:17:24 25° E 04:17:24 25° E 04:19:43 10° ENE visible
21 Feb 3.7 05:19:04 14° NW 05:19:04 14° NW 05:20:20 10° NNW visible
